Dansville, NY

6:22 PM EST on February 25, 2017 (GMT -0500)
Dansville Municipal

Weather History for KDSV - April, 2013

Change the Weather History Date:

Friday, April 5, 2013

  Actual Average Record
Temperature  
Mean Temperature 39 °F -  
Max Temperature 48 °F 52 °F 83 °F (1981)
Min Temperature 27 °F 31 °F 9 °F (2016)
Degree Days  
Heating Degree Days 26    
Moisture  
Dew Point 20 °F    
Average Humidity 50    
Maximum Humidity 63    
Minimum Humidity 38    
Precipitation  
Precipitation 0.00 in - - ()
Sea Level Pressure  
Sea Level Pressure 30.01 in    
Wind  
Wind Speed 8 mph (NW)    
Max Wind Speed 22 mph    
Max Gust Speed 30 mph    
Visibility 10 miles    
Events      
Averages and records for this station are not official NWS values.
T = Trace of Precipitation, MM = Missing Value Source: NWS Daily Summary

Daily Weather History Graph

Daily Weather History Graph

Search for Another Location

Airport or City:

Trip Planner

Search our weather history database for the weather conditions in past years. The results will help you decide how hot, cold, wet, or windy it might be!

Date:

Astronomy

Apr. 05, 2013 Rise Set
Actual Time 6:45 AM EDT 7:41 PM EDT
Civil Twilight 6:17 AM EDT 8:10 PM EDT
Nautical Twilight 5:43 AM EDT 8:44 PM EDT
Astronomical Twilight 5:07 AM EDT 9:20 PM EDT
Moon 3:57 AM EDT (4/5) 2:57 PM EDT (4/5)
Length of Visible Light 13h 53m
Length of Day
12h 55m
Waning Crescent, 24% of the Moon is Illuminated
Apr 5
Waning Crescent
Apr 10
New
Apr 18
First Quarter
Apr 25
Full
May 2
Last Quarter

Hourly Weather History & Observations

Time (EDT) Temp. Windchill Dew Point Humidity Pressure Visibility Wind Dir Wind Speed Gust Speed Precip Events Conditions
12:54 AM 34.0 °F 31.0 °F 17.1 °F 50% 29.95 in 10.0 mi South 3.5 mph - N/A   Clear
1:54 AM 34.0 °F 28.8 °F 16.0 °F 48% 29.95 in 10.0 mi South 5.8 mph - N/A   Clear
2:54 AM 33.1 °F 26.9 °F 16.0 °F 50% 29.94 in 10.0 mi SSE 6.9 mph - N/A   Clear
3:54 AM 36.0 °F 32.1 °F 14.0 °F 41% 29.91 in 10.0 mi South 4.6 mph - N/A   Clear
4:54 AM 32.0 °F - 18.0 °F 56% 29.93 in 10.0 mi Calm Calm - N/A   Clear
5:54 AM 30.9 °F 26.2 °F 18.0 °F 59% 29.94 in 10.0 mi SSE 4.6 mph - N/A   Mostly Cloudy
6:54 AM 32.0 °F - 19.0 °F 59% 29.97 in 10.0 mi Calm Calm - N/A   Overcast
7:54 AM 34.0 °F - 19.9 °F 56% 29.99 in 10.0 mi Calm Calm - N/A   Overcast
8:54 AM 39.0 °F - 19.0 °F 45% 29.99 in 10.0 mi Calm Calm - N/A   Partly Cloudy
9:54 AM 44.1 °F 38.6 °F 26.1 °F 49% 29.98 in 10.0 mi NNW 10.4 mph - N/A   Clear
10:54 AM 46.9 °F - 26.1 °F 44% 29.98 in 10.0 mi NW 13.8 mph 23.0 mph N/A   Partly Cloudy
11:54 AM 48.0 °F - 25.0 °F 41% 29.98 in 10.0 mi NW 16.1 mph 27.6 mph N/A   Partly Cloudy
12:54 PM 46.0 °F 39.3 °F 23.0 °F 40% 29.98 in 10.0 mi NW 16.1 mph 23.0 mph N/A   Mostly Cloudy
1:54 PM 48.0 °F - 24.1 °F 39% 29.98 in 10.0 mi NNW 21.9 mph - N/A   Mostly Cloudy
2:54 PM 45.0 °F 36.9 °F 24.1 °F 44% 29.99 in 10.0 mi NNW 20.7 mph 27.6 mph N/A   Overcast
3:54 PM 45.0 °F 37.6 °F 21.0 °F 39% 30.00 in 10.0 mi NW 17.3 mph 29.9 mph N/A   Overcast
4:54 PM 44.1 °F 35.9 °F 19.9 °F 38% 30.01 in 10.0 mi NW 19.6 mph 25.3 mph N/A   Overcast
5:54 PM 43.0 °F 35.1 °F 25.0 °F 49% 30.04 in 10.0 mi NW 17.3 mph 21.9 mph N/A   Overcast
6:54 PM 39.9 °F 31.8 °F 24.1 °F 53% 30.07 in 10.0 mi NNW 15.0 mph 20.7 mph N/A   Overcast
7:54 PM 37.0 °F 31.0 °F 21.9 °F 54% 30.09 in 10.0 mi NW 8.1 mph - N/A   Scattered Clouds
8:54 PM 34.0 °F 24.6 °F 19.9 °F 56% 30.13 in 10.0 mi NNW 13.8 mph - N/A   Mostly Cloudy
9:54 PM 32.0 °F 25.6 °F 19.0 °F 59% 30.17 in 10.0 mi NW 6.9 mph - N/A   Mostly Cloudy
10:54 PM 30.9 °F 26.2 °F 17.1 °F 57% 30.18 in 10.0 mi WNW 4.6 mph - N/A   Partly Cloudy
11:54 PM 27.0 °F 21.6 °F 16.0 °F 63% 30.19 in 10.0 mi North 4.6 mph - N/A   Clear